Location: Calvera
(42.3882°N, 0.6137°E)
Time: 20:02:19
(UTC+00:00)

Cosmos 1726 Rocket - Pass Details

Date: 28 October 2020
Orbit: 604 x 628 km, 82.5° (Epoch: 22 November)

Event Time Altitude Azimuth Distance (km) Brightness Sun altitude
Rises 04:34:04 0° 354° (N) 2,921 7.0 -21.3°
Reaches altitude 10° 04:36:20 10° 357° (N) 2,012 6.2 -20.8°
Maximum altitude 04:40:46 67° 80° (E) 685 3.9 -20.0°
Drops below altitude 10° 04:45:11 10° 164° (SSE) 2,000 6.4 -19.2°
Sets 04:47:25 0° 167° (SSE) 2,902 7.2 -18.8°
